STARLINK-32287, 60358

Orbit data source: Space-Track

STARLINK-32287, 60358 is a payload satellite owned by SpaceX/Seattle (US) in LEO that was launched on Sun, 04 Aug 2024 UTC via an FALCON 9 launch vehicle from the Air Force Western Test Range (AFWTR). Payload-class satellites include a variety of spacecraft equipped with specific instruments for various scientific and technological missions. These include communications satellites like Starlink; space stations such as the ISS; scientific satellites like the Hubble; Earth observation satellites from companies like Planet Labs, Umbra, and HawkEye 360; GPS; miniature CubeSats for education and research; and military/defense satellites.

Loading next visibility...
Identifier
60358, 2024-138D
Orbit
LEO
Country
Flag of USUS
Related business
Manufacturer
SpaceX/Seattle
Mission
Operational Commercial Communications
Bus & Motor
STARLINK V2M, Unknown motor
Mass
730 kg wet, ~700 kg dry
Launch date (UTC)
2024-08-04 (1 year ago)
Launch vehicle
FALCON 9
Launch site
Air Force Western Test Range (AFWTR)
Object type
Payload
Rocket body
Debris
Shape & HBR
Box + 2 Pan, 17.7 m
Radar Cross Section
33.884 m², Large (>1 m²)

Expand to show TLE details & history
Last TLE update: 9 hours ago

TLE from 9 hours ago
0 STARLINK-32287
1 60358U 24138D   25353.94269781  .00000035  00000-0  13322-4 0  9997
2 60358  53.1634 320.3320 0001390  98.3305 261.7853 15.30195776 78416
Epoch: 2025-12-19T22:37Z
TLE epoch observation values (Epoch: 2025-12-19T22:37:29.090Z)
Latitude
-0.00007°
Longitude
-107.81587°
Altitude
476.264 km
Speed
7.629 km/s
True Right ascension
21h 21m 19s
True Declination
0° 00' 00"
Sunlit
Object was in daylight at epoch
Visualization orbit readout
Latitude
Unknown
Longitude
Unknown
Altitude
Unknown
Speed
Unknown
Apparent Right ascension
Unknown
Apparent Declination
Unknown
Sunlit
N/A
Visualization observer readout
Local Sidereal Time
06:15:15
Azimuth
Unknown
Elevation
Unknown
Doppler factor
Unknown
Orbital elements
Apogee altitude
476.436 km
Perigee altitude
474.531 km
Semi-major axis
6,853.621 km
Eccentricity
0.00014
Inclination
53.1634°
RAAN
320.332°
Arg. of periapsis
98.3305°
True anomaly
261.76954°
Mean anomaly
261.7853°
Eccentric anomaly
261.77742°
Mean motion
3.82528 °/min
Orbital period
94.11 mins
BSTAR
0.000013322
Loading maneuver chart data...
Computing Atmospheric mass density...
Loading historical data...
Loading historical data...
Loading historical data...
Loading historical data...
Loading historical data...
Loading historical data...
Loading historical data...

Documentation

Showing up to 5 results
|